• In Hungary
  • List of Countries
  • For 7 days
  • Water Temperature
  • Satellite Maps
  • Weather Map
  • News
  • Weather Widgets
  • user-avatar
    Login

    Hourly Weather Erunovo

    Today, 27 April, Friday

    Time Temperature Precipitation Wind Pressure Humidity
    00:00 +4°C° 0 mm 4 mps 738 mmHg 91%
    01:00 +3°C° 0 mm 4 mps 739 mmHg 92%
    02:00 +2°C° 0 mm 3 mps 739 mmHg 94%
    03:00 +2°C° 0 mm 3 mps 740 mmHg 94%
    04:00 +2°C° 0 mm 3 mps 740 mmHg 95%
    05:00 +2°C° 0 mm 3 mps 741 mmHg 95%
    06:00 +3°C° 0 mm 3 mps 741 mmHg 91%
    07:00 +5°C° 0 mm 3 mps 741 mmHg 86%
    08:00 +7°C° 0 mm 3 mps 742 mmHg 82%
    09:00 +7°C° 0.2 mm 4 mps 742 mmHg 75%
    10:00 +8°C° 0.2 mm 4 mps 743 mmHg 68%
    11:00 +10°C° 0.2 mm 4 mps 743 mmHg 61%
    12:00 +11°C° 0.3 mm 4 mps 743 mmHg 59%
    13:00 +11°C° 0.3 mm 4 mps 743 mmHg 56%
    14:00 +11°C° 0.3 mm 4 mps 743 mmHg 54%
    15:00 +11°C° 0.1 mm 4 mps 743 mmHg 56%
    16:00 +11°C° 0.1 mm 3 mps 743 mmHg 58%
    17:00 +10°C° 0.1 mm 3 mps 743 mmHg 61%
    18:00 +9°C° 0.1 mm 2 mps 744 mmHg 68%
    19:00 +8°C° 0.1 mm 2 mps 744 mmHg 74%
    20:00 +6°C° 0.1 mm 2 mps 744 mmHg 81%
    21:00 +6°C° 0 mm 2 mps 745 mmHg 84%
    22:00 +5°C° 0 mm 2 mps 745 mmHg 86%
    23:00 +4°C° 0 mm 2 mps 745 mmHg 88%

    Tomorrow, 28 April, Saturday

    Time Temperature Precipitation Wind Pressure Humidity
    00:00 +4°C° 0 mm 2 mps 745 mmHg 90%
    01:00 +4°C° 0 mm 2 mps 745 mmHg 91%
    02:00 +3°C° 0 mm 2 mps 745 mmHg 92%
    03:00 +3°C° 0 mm 2 mps 746 mmHg 93%
    04:00 +3°C° 0 mm 2 mps 746 mmHg 93%
    05:00 +3°C° 0 mm 2 mps 746 mmHg 93%
    06:00 +5°C° 0 mm 2 mps 746 mmHg 87%
    07:00 +7°C° 0 mm 2 mps 746 mmHg 80%
    08:00 +8°C° 0 mm 2 mps 746 mmHg 73%
    09:00 +9°C° 0.3 mm 3 mps 746 mmHg 68%
    10:00 +10°C° 0.3 mm 3 mps 747 mmHg 64%
    11:00 +11°C° 0.3 mm 3 mps 747 mmHg 59%
    12:00 +11°C° 0.5 mm 4 mps 747 mmHg 58%
    13:00 +12°C° 0.5 mm 4 mps 747 mmHg 57%
    14:00 +12°C° 0.5 mm 4 mps 747 mmHg 55%
    15:00 +11°C° 0.2 mm 4 mps 747 mmHg 57%
    16:00 +11°C° 0.2 mm 4 mps 747 mmHg 58%
    17:00 +11°C° 0.2 mm 3 mps 747 mmHg 60%
    18:00 +9°C° 0 mm 3 mps 747 mmHg 66%
    19:00 +8°C° 0 mm 2 mps 747 mmHg 73%
    20:00 +6°C° 0 mm 2 mps 748 mmHg 79%
    21:00 +6°C° 0 mm 2 mps 748 mmHg 81%
    22:00 +5°C° 0 mm 2 mps 748 mmHg 83%
    23:00 +5°C° 0 mm 2 mps 749 mmHg 85%

    Day after tomorrow, 29 April, Sunday

    Time Temperature Precipitation Wind Pressure Humidity
    00:00 +4°C° 0 mm 2 mps 749 mmHg 86%
    01:00 +4°C° 0 mm 2 mps 749 mmHg 88%
    02:00 +4°C° 0 mm 2 mps 749 mmHg 89%
    03:00 +4°C° 0 mm 2 mps 749 mmHg 89%
    04:00 +4°C° 0 mm 2 mps 750 mmHg 89%
    05:00 +4°C° 0 mm 2 mps 750 mmHg 89%
    06:00 +6°C° 0 mm 2 mps 750 mmHg 82%
    07:00 +8°C° 0 mm 2 mps 750 mmHg 75%
    08:00 +10°C° 0 mm 2 mps 750 mmHg 68%
    09:00 +12°C° 0 mm 2 mps 750 mmHg 61%
    10:00 +13°C° 0 mm 3 mps 750 mmHg 54%
    11:00 +14°C° 0 mm 3 mps 750 mmHg 47%
    12:00 +16°C° 0 mm 3 mps 749 mmHg 46%
    13:00 +16°C° 0 mm 3 mps 749 mmHg 45%
    14:00 +17°C° 0 mm 3 mps 749 mmHg 44%
    15:00 +16°C° 0 mm 2 mps 748 mmHg 48%
    16:00 +16°C° 0 mm 2 mps 748 mmHg 52%
    17:00 +16°C° 0 mm 2 mps 748 mmHg 56%
    18:00 +14°C° 0 mm 2 mps 747 mmHg 63%
    19:00 +13°C° 0 mm 2 mps 747 mmHg 70%
    20:00 +10°C° 0 mm 2 mps 747 mmHg 77%
    21:00 +10°C° 0 mm 3 mps 746 mmHg 79%
    22:00 +10°C° 0 mm 3 mps 746 mmHg 82%
    23:00 +9°C° 0 mm 3 mps 745 mmHg 85%

    30 April, Monday

    Time Temperature Precipitation Wind Pressure Humidity
    00:00 +9°C° 0.2 mm 3 mps 745 mmHg 87%
    01:00 +8°C° 0.2 mm 4 mps 745 mmHg 90%
    02:00 +8°C° 0.2 mm 4 mps 744 mmHg 93%
    03:00 +8°C° 0 mm 4 mps 744 mmHg 93%
    04:00 +9°C° 0 mm 3 mps 744 mmHg 94%
    05:00 +9°C° 0 mm 3 mps 744 mmHg 94%
    06:00 +11°C° 0 mm 4 mps 744 mmHg 86%
    07:00 +12°C° 0 mm 4 mps 744 mmHg 77%
    08:00 +13°C° 0 mm 4 mps 744 mmHg 68%
    09:00 +14°C° 0 mm 5 mps 744 mmHg 63%
    10:00 +15°C° 0 mm 5 mps 744 mmHg 58%
    11:00 +16°C° 0 mm 6 mps 744 mmHg 52%
    12:00 +16°C° 0 mm 6 mps 744 mmHg 52%
    13:00 +16°C° 0 mm 6 mps 744 mmHg 52%
    14:00 +15°C° 0 mm 6 mps 745 mmHg 52%
    15:00 +15°C° 0 mm 5 mps 745 mmHg 53%
    16:00 +14°C° 0 mm 5 mps 745 mmHg 54%
    17:00 +13°C° 0 mm 4 mps 745 mmHg 56%
    18:00 +11°C° 0 mm 4 mps 746 mmHg 62%
    19:00 +10°C° 0 mm 3 mps 746 mmHg 68%
    20:00 +8°C° 0 mm 2 mps 747 mmHg 75%
    21:00 +7°C° 0 mm 2 mps 747 mmHg 78%
    22:00 +6°C° 0 mm 2 mps 747 mmHg 81%
    23:00 +6°C° 0 mm 2 mps 748 mmHg 84%

    1 May, Tuesday

    Time Temperature Precipitation Wind Pressure Humidity
    00:00 +5°C° 0 mm 2 mps 748 mmHg 86%
    01:00 +5°C° 0 mm 2 mps 748 mmHg 87%
    02:00 +4°C° 0 mm 2 mps 748 mmHg 88%
    03:00 +4°C° 0.1 mm 2 mps 748 mmHg 86%
    04:00 +5°C° 0.1 mm 2 mps 748 mmHg 85%
    05:00 +4°C° 0.1 mm 3 mps 749 mmHg 83%
    06:00 +4°C° 0.2 mm 3 mps 748 mmHg 82%
    07:00 +4°C° 0.2 mm 3 mps 748 mmHg 81%
    08:00 +5°C° 0.2 mm 4 mps 748 mmHg 80%
    09:00 +5°C° 0.6 mm 4 mps 748 mmHg 82%
    10:00 +5°C° 0.6 mm 4 mps 747 mmHg 83%
    11:00 +6°C° 0.6 mm 5 mps 747 mmHg 84%
    12:00 +7°C° 0.2 mm 4 mps 747 mmHg 83%
    13:00 +9°C° 0.2 mm 3 mps 747 mmHg 83%
    14:00 +10°C° 0.2 mm 3 mps 747 mmHg 82%
    15:00 +10°C° 0.1 mm 3 mps 747 mmHg 84%
    16:00 +10°C° 0.1 mm 2 mps 747 mmHg 85%
    17:00 +10°C° 0.1 mm 2 mps 747 mmHg 87%
    18:00 +9°C° 0 mm 2 mps 747 mmHg 89%
    19:00 +9°C° 0 mm 2 mps 748 mmHg 92%
    20:00 +10°C° 0 mm 1 mps 748 mmHg 94%
    21:00 +9°C° 0 mm 1 mps 748 mmHg 95%
    22:00 +9°C° 0 mm 1 mps 748 mmHg 96%
    23:00 +8°C° 0 mm 1 mps 749 mmHg 97%

    2 May, Wednesday

    Time Temperature Precipitation Wind Pressure Humidity
    00:00 +8°C° 0 mm 1 mps 749 mmHg 97%
    01:00 +7°C° 0 mm 1 mps 749 mmHg 97%
    02:00 +6°C° 0 mm 1 mps 749 mmHg 97%
    03:00 +7°C° 0 mm 1 mps 749 mmHg 97%
    04:00 +7°C° 0 mm 1 mps 749 mmHg 97%
    05:00 +6°C° 0 mm 0 mps 749 mmHg 97%
    06:00 +9°C° 0 mm 1 mps 749 mmHg 91%
    07:00 +11°C° 0 mm 1 mps 749 mmHg 85%
    08:00 +13°C° 0 mm 2 mps 749 mmHg 79%
    09:00 +13°C° 0.3 mm 2 mps 748 mmHg 81%
    10:00 +13°C° 0.3 mm 2 mps 748 mmHg 82%
    11:00 +14°C° 0.3 mm 2 mps 748 mmHg 84%
    12:00 +15°C° 0.8 mm 2 mps 747 mmHg 83%
    13:00 +16°C° 0.8 mm 2 mps 747 mmHg 82%
    14:00 +17°C° 0.8 mm 2 mps 747 mmHg 81%
    15:00 +17°C° 0.3 mm 2 mps 746 mmHg 82%
    16:00 +17°C° 0.3 mm 2 mps 746 mmHg 82%
    17:00 +18°C° 0.3 mm 2 mps 746 mmHg 83%
    18:00 +17°C° 0 mm 2 mps 746 mmHg 87%
    19:00 +16°C° 0 mm 2 mps 746 mmHg 90%
    20:00 +15°C° 0 mm 2 mps 746 mmHg 94%
    21:00 +14°C° 0 mm 2 mps 747 mmHg 94%
    22:00 +14°C° 0 mm 2 mps 747 mmHg 94%
    23:00 +12°C° 0 mm 3 mps 747 mmHg 94%
    Show more